Погода в Птолемаиде

Греция     40°30′38″N   21°40′53″E
темп.,
°C
ветер,
м/с
пор.,
м/с
влажн.,
%
обл.,
%
осадки,
мм/ч
давл.,
гПа
погр.,
м
22 января, сб
сб2223:00−5с348394 1.7 1022235
02:00−7с359190 1.7 1023172
05:00−8ссз3582100 0.0 1022198
08:00−8ссз34826 0.0 1023189
11:00−5ссз35580 0.0 1023468
14:00−2ссз47380 0.0 1020936
17:00−4с225510 0.0 101965
20:00−5сз116867 0.0 102130
23 января, вс
вс2323:00−6с237539 0.0 102380
02:00−6ссз49751 0.0 1025420
05:00−6ссз610611 0.0 1026436
08:00−7сз48681 0.0 1027255
11:00−4ссз57430 0.0 1028815
14:00−3ссз57370 0.0 1025810
17:00−4с34530 0.0 1024172
20:00−7с23670 0.0 102674
24 января, пн
пн2423:00−7с22712 0.0 102547
02:00−8ссз357614 0.0 1026187
05:00−8ссз47788 0.0 1026287
08:00−9с238321 0.0 1028107
11:00−6с3562100 0.0 10281052
14:00−5ссв4652100 0.2 10271602
17:00−5ссв575295 0.1 10281250
20:00−7ссз357430 0.1 1031241
25 января, вт
вт2523:00−9ссз35794 0.0 1033262
02:00−10ссз358412 0.0 1034230
05:00−11ссз34859 0.0 1034166
08:00−11ссз238084 0.0 1034117
11:00−7ссз34525 0.0 1032478
14:00−5ссз45421 0.0 1030802
17:00−6ссз355025 0.0 1030462
20:00−8ссз2460100 0.0 1031170
26 января, ср
ср2623:00−9ссз23600 0.0 103188
02:00−9ссз23595 0.0 103073
05:00−10ссз235577 0.0 102956
08:00−8ссз2354100 0.0 102889
11:00−4ссз3444100 0.0 1027195
14:00−1ссз455124 0.0 1025478
17:00−2ссз34621 0.0 1025150
20:00−5с22721 0.0 102843